FALCON 9 DEB (46592 NORAD) Tracking and Keplerian Element Data

This shows tracking and keplerian element data for the satellite.

Feedback or suggestion? Click here.




ElementValue
Catalog46592
NameFALCON 9 DEB
Epoch Orbit556
Epoch Day310.13446948
Epoch Year2020
RAAN289.0773
Inclination52.9746
Eccentricity0.0001196
Argument of Perigee306.5398
Mean Anonmoly53.5541
Mean Motion16.48750225
Decay Rate0.11845367
L11 46592U 20070BN 20310.13446948 .11845367 12622-4 17544-3 0 9996
L22 46592 52.9746 289.0773 0001196 306.5398 53.5541 16.48750225 5567

Live tracking and technical data element details for FALCON 9 DEB (NORAD 46592). FALCON 9 DEB can be tracked NOW for your location showing map with azimuth and elevation plus other details from your city location.

Track the satellite on the map from your city or location and see movement details for azimuth, elevation, latitude, longitude, range, height, and movement on the map or in text.







IsCatalogInMostPopularTable: catalog: 46592, numindb: 13
Update: records affected: 1



GetName: 46592 FALCON 9 DEB

Hit Count: updated at: Wed, 02 Dec 2020 06:27:08 GMT